User: anonymous   Login
Location: Caltech
(34.1382°N, 118.1253°W)
Time: 22:33:00
(UTC-08:00)
Language:

KITSAT 1 - Orbit

View from above orbital plane
View from above orbital plane
View from above satellite
View from above satellite

Ground track
Ground track

The orbit data is extracted from the following two-line orbital elements,

1 22077U 92052B   14352.59628017 -.00000004  00000-0  23204-3 0  7705
2 22077 066.0863 076.0044 0001625 002.8166 101.6437 12.86498738 50123
Epoch (UTC): 18 December 2014 14:18:38
Eccentricity: 0.0001625
inclination: 66.0863°
perigee height: 1314 km
apogee height: 1317 km
right ascension of ascending node: 76.0044°
argument of perigee: 2.8166°
revolutions per day: 12.86498738
mean anomaly at epoch: 101.6437°
orbit number at epoch: 5012

The dashed part of the orbit path shows where the satellite is in the earth's shadow,  

DLR